Fullerton, CA

12:41 AM PDT on May 26, 2017 (GMT -0700)
Fullerton Municipal

Weather History for KFUL - June, 2013

Change the Weather History Date:

Tuesday, June 25, 2013

  Actual Average Record
Temperature  
Mean Temperature 74 °F 71 °F  
Max Temperature 82 °F 80 °F 97 °F (2006)
Min Temperature 66 °F 62 °F 58 °F (2005)
Degree Days  
Heating Degree Days 0 0  
Month to date heating degree days 0 0  
Since 1 June heating degree days 0 0  
Since 1 July heating degree days 726 1224  
Cooling Degree Days 9 6  
Month to date cooling degree days 196 110  
Year to date cooling degree days 551 233  
Since 1 June cooling degree days 196 110  
Growing Degree Days 24 (Base 50)    
Moisture  
Dew Point 59 °F    
Average Humidity 64    
Maximum Humidity 78    
Minimum Humidity 49    
Precipitation  
Precipitation 0.00 in 0.00 in 0.01 in (1965)
Month to date precipitation 0.00 0.08  
Year to date precipitation 2.53 9.64  
Since 1 July precipitation 5.84  
Snow  
Snow 0.00 in - - ()
Month to date snowfall 0.0  
Year to date snowfall 0.0  
Snow Depth 0.00 in    
Sea Level Pressure  
Sea Level Pressure 29.94 in    
Wind  
Wind Speed 3 mph (WSW)    
Max Wind Speed 8 mph    
Max Gust Speed 13 mph    
Visibility 10 miles    
Events      
T = Trace of Precipitation, MM = Missing Value Source: NWS Daily Summary

Daily Weather History Graph

Daily Weather History Graph

Search for Another Location

Airport or City:

Trip Planner

Search our weather history database for the weather conditions in past years. The results will help you decide how hot, cold, wet, or windy it might be!

Date:

Astronomy

Jun. 25, 2013 Rise Set
Actual Time 5:42 AM PDT 8:06 PM PDT
Civil Twilight 5:13 AM PDT 8:35 PM PDT
Nautical Twilight 4:37 AM PDT 9:11 PM PDT
Astronomical Twilight 3:58 AM PDT 9:50 PM PDT
Moon 10:04 PM PDT (6/25) 8:20 AM PDT (6/25)
Length of Visible Light 15h 22m
Length of Day
14h 24m
Waning Gibbous, 92% of the Moon is Illuminated
Jun 25
Waning Gibbous
Jun 29
Last Quarter
Jul 8
New
Jul 15
First Quarter
Jul 22
Full

Hourly Weather History & Observations

Time (PDT) Temp. Heat Index Dew Point Humidity Pressure Visibility Wind Dir Wind Speed Gust Speed Precip Events Conditions
12:53 AM 68.0 °F - 59.0 °F 73% 29.92 in 10.0 mi Calm Calm - N/A   Clear
1:53 AM 66.9 °F - 59.0 °F 76% 29.93 in 10.0 mi West 3.5 mph - N/A   Clear
2:53 AM 66.9 °F - 59.0 °F 76% 29.93 in 10.0 mi WNW 3.5 mph - N/A   Clear
3:53 AM 66.0 °F - 59.0 °F 78% 29.94 in 10.0 mi Calm Calm - N/A   Mostly Cloudy
4:53 AM 66.9 °F - 59.0 °F 76% 29.95 in 10.0 mi Calm Calm - N/A   Overcast
5:53 AM 68.0 °F - 59.0 °F 73% 29.95 in 10.0 mi Calm Calm - N/A   Overcast
6:53 AM 68.0 °F - 59.0 °F 73% 29.96 in 8.0 mi Calm Calm - N/A   Overcast
7:04 AM 68.0 °F - 59.0 °F 73% 29.97 in 9.0 mi ENE 3.5 mph - N/A   Overcast
7:53 AM 69.1 °F - 59.0 °F 70% 29.97 in 8.0 mi Calm Calm - N/A   Overcast
8:53 AM 70.0 °F - 59.0 °F 68% 29.98 in 8.0 mi Calm Calm - N/A   Overcast
9:53 AM 70.0 °F - 60.1 °F 71% 29.99 in 7.0 mi South 5.8 mph - N/A   Overcast
10:53 AM 71.1 °F - 60.1 °F 68% 29.99 in 8.0 mi SW 3.5 mph - N/A   Overcast
11:53 AM 73.0 °F - 60.1 °F 64% 29.99 in 10.0 mi Variable 3.5 mph - N/A   Overcast
12:53 PM 73.0 °F - 60.1 °F 64% 29.99 in 10.0 mi Variable 4.6 mph - N/A   Overcast
1:53 PM 73.9 °F - 60.1 °F 62% 29.98 in 10.0 mi SSW 5.8 mph - N/A   Overcast
2:53 PM 77.0 °F - 60.1 °F 56% 29.96 in 10.0 mi Variable 4.6 mph - N/A   Overcast
3:22 PM 78.8 °F - 60.8 °F 54% 29.95 in 10.0 mi Variable 4.6 mph - N/A   Scattered Clouds
3:53 PM 80.1 °F 80.9 °F 60.1 °F 50% 29.93 in 10.0 mi Variable 3.5 mph - N/A   Clear
4:53 PM 81.0 °F 81.3 °F 59.0 °F 47% 29.91 in 10.0 mi Variable 5.8 mph - N/A   Clear
5:53 PM 81.0 °F 81.1 °F 57.9 °F 45% 29.89 in 10.0 mi WSW 6.9 mph - N/A   Clear
6:53 PM 80.1 °F 80.4 °F 57.0 °F 45% 29.89 in 10.0 mi Variable 3.5 mph - N/A   Clear
7:53 PM 77.0 °F - 57.9 °F 52% 29.89 in 10.0 mi West 6.9 mph - N/A   Clear
8:53 PM 73.9 °F - 59.0 °F 59% 29.90 in 10.0 mi West 3.5 mph - N/A   Clear
9:53 PM 72.0 °F - 59.0 °F 64% 29.92 in 10.0 mi West 5.8 mph - N/A   Clear
10:53 PM 70.0 °F - 57.9 °F 65% 29.92 in 10.0 mi WNW 4.6 mph - N/A   Clear
11:53 PM 69.1 °F - 59.0 °F 70% 29.93 in 10.0 mi Calm Calm - N/A   Clear